This is the latest recevied weather packets stored in our database for station/object R8AHC-W4. If no packets are shown the sender has not sent any weather packets the latest 10 day(s).
| Time | Temp. | Humidity | Pressure | Rain* | Wind** | Luminosity | Snow |
|---|---|---|---|---|---|---|---|
| 1778187422 | 13.33° C | 95% | 1011 hPa | - | 0.45 m/s, 180° | - | - |
| 1778183822 | 13.33° C | 95% | 1011 hPa | - | 0.45 m/s, 180° | - | - |
| 1778180222 | 13.33° C | 95% | 1014 hPa | - | 0.45 m/s, 180° | - | - |
| 1778173023 | 14.44° C | 91% | 1013 hPa | - | 1.34 m/s, 60° | - | - |
| 1778133422 | 20.56° C | 52% | 1010 hPa | - | 3.58 m/s, 265° | - | - |
| 1778129822 | 20.56° C | 52% | 1009 hPa | - | 3.58 m/s, 265° | - | - |
| 1778115422 | 11.67° C | 75% | 1009 hPa | - | 2.24 m/s, 217° | - | - |
| 1778111822 | 11.67° C | 75% | 1009 hPa | - | 2.24 m/s, 217° | - | - |
| 1778108222 | 11.67° C | 75% | 1010 hPa | - | 2.24 m/s, 217° | - | - |
| 1778101022 | 12.22° C | 77% | 1010 hPa | - | 2.24 m/s, 221° | - | - |
| 1778093822 | 13.33° C | 75% | 1011 hPa | - | 3.13 m/s, 199° | - | - |
| 1778090222 | 13.33° C | 75% | 1011 hPa | - | 3.13 m/s, 199° | - | - |
| 1778075823 | 18.33° C | 60% | 1011 hPa | - | 3.13 m/s, 181° | - | - |
| 1778065022 | 22.78° C | 40% | 1011 hPa | - | 3.13 m/s, 235° | - | - |
| 1778061422 | 22.78° C | 40% | 1011 hPa | - | 3.13 m/s, 235° | - | - |
| 1778057822 | 22.78° C | 40% | 1011 hPa | - | 3.13 m/s, 235° | - | - |
| 1778054222 | 22.78° C | 40% | 1012 hPa | - | 3.13 m/s, 235° | - | - |
| 1778047022 | 20.56° C | 44% | 1012 hPa | - | 3.58 m/s, 232° | - | - |
| 1778039822 | 16.67° C | 60% | 1013 hPa | - | 2.24 m/s, 239° | - | - |
| 1778032622 | 13.33° C | 69% | 1013 hPa | - | 2.24 m/s, 234° | - | - |
| 1778021823 | 12.78° C | 72% | 1012 hPa | - | 2.68 m/s, 242° | - | - |
| 1778014622 | 11.67° C | 78% | 1013 hPa | - | 2.24 m/s, 252° | - | - |
| 1778003823 | 13.33° C | 66% | 1013 hPa | - | 2.24 m/s, 251° | - | - |
| 1777993022 | 14.44° C | 65% | 1012 hPa | - | 2.24 m/s, 242° | - | - |
| 1777960622 | 15° C | 66% | 1011 hPa | - | 2.68 m/s, 295° | - | - |
* Rain since midnight (hover to see other rain measurements)
** Current wind speed in m/s (hover to see current wind gust speed)